Weather History for Montpelier, VT

Change the Weather History Date:

Saturday, November 9, 2013

  Actual Average Record
Temperature  
Mean Temperature 34 °F 38 °F  
Max Temperature 38 °F 47 °F 69 °F (2009)
Min Temperature 30 °F 29 °F 10 °F (1971)
Degree Days  
Heating Degree Days 31 27  
Month to date heating degree days 247 232  
Since 1 July heating degree days 1182 1188  
Cooling Degree Days 0 0  
Month to date cooling degree days 0  
Year to date cooling degree days 264  
Moisture  
Dew Point 22 °F    
Average Humidity 60    
Maximum Humidity 72    
Minimum Humidity 48    
Precipitation  
Precipitation 0.01 in 0.10 in 1.18 in (1996)
Month to date precipitation 0.65 0.98  
Year to date precipitation 33.06 32.34  
Sea Level Pressure  
Sea Level Pressure 30.13 in    
Wind  
Wind Speed 7 mph (West)    
Max Wind Speed 17 mph    
Max Gust Speed 25 mph    
Visibility 9 miles    
Events Snow    
T = Trace of Precipitation, MM = Missing Value Source: NWS Daily Summary

Daily Weather History Graph

Daily Weather History Graph

Search for Another Location

Airport:

Trip Planner

Search our weather history database for the weather conditions in past years. The results will help you decide how hot, cold, wet, or windy it might be!

Date:

Astronomy

Nov. 09, 2013 Rise Set
Actual Time 6:38 AM EST 4:29 PM EST
Civil Twilight 6:07 AM EST 5:00 PM EST
Nautical Twilight 5:32 AM EST 5:35 PM EST
Astronomical Twilight 4:58 AM EST 6:08 PM EST
Moon 12:10 PM EST (11/9) 10:59 PM EST (11/9)
Length of Visible Light 10h 53m
Length of Day
9h 51m
Waxing Crescent, 44% of the Moon is Illuminated
Nov 9
Waxing Crescent
Nov 10
First Quarter
Nov 17
Full
Nov 25
Last Quarter
Dec 2
New

Hourly Weather History & Observations

Time (EST) Temp. Windchill Dew Point Humidity Pressure Visibility Wind Dir Wind Speed Gust Speed Precip Events Conditions
12:51 AM 30.9 °F 22.2 °F 19.9 °F 64% 30.13 in 10.0 mi WNW 10.4 mph 17.3 mph N/A   Overcast
1:51 AM 30.9 °F 27.5 °F 19.0 °F 61% 30.14 in 10.0 mi WNW 3.5 mph - N/A   Overcast
2:51 AM 32.0 °F 25.6 °F 19.9 °F 61% 30.16 in 10.0 mi NW 6.9 mph - N/A   Overcast
3:51 AM 30.9 °F 22.2 °F 19.9 °F 64% 30.17 in 10.0 mi WNW 10.4 mph 18.4 mph N/A   Overcast
4:51 AM 30.9 °F 20.2 °F 21.0 °F 67% 30.19 in 10.0 mi NW 15.0 mph 20.7 mph N/A   Overcast
5:51 AM 30.9 °F 22.8 °F 21.0 °F 67% 30.19 in 10.0 mi NW 9.2 mph 19.6 mph N/A   Overcast
6:51 AM 30.9 °F 22.8 °F 21.0 °F 67% 30.20 in 10.0 mi NW 9.2 mph 18.4 mph N/A   Overcast
7:51 AM 30.9 °F 23.5 °F 19.9 °F 64% 30.22 in 10.0 mi WNW 8.1 mph - N/A   Partly Cloudy
8:51 AM 32.0 °F 23.6 °F 19.9 °F 61% 30.22 in 10.0 mi NW 10.4 mph 18.4 mph N/A   Overcast
9:51 AM 35.1 °F 26.9 °F 21.0 °F 57% 30.21 in 10.0 mi NW 11.5 mph 20.7 mph 0.01 in   Mostly Cloudy
10:51 AM 34.0 °F 27.2 °F 21.0 °F 59% 30.20 in 10.0 mi NW 8.1 mph - N/A   Partly Cloudy
11:51 AM 35.1 °F 28.6 °F 19.9 °F 54% 30.18 in 10.0 mi NW 8.1 mph 16.1 mph N/A   Partly Cloudy
12:51 PM 36.0 °F 31.1 °F 21.0 °F 55% 30.16 in 10.0 mi North 5.8 mph - N/A   Mostly Cloudy
1:51 PM 37.0 °F - 19.9 °F 50% 30.13 in 10.0 mi Calm Calm - N/A   Partly Cloudy
2:51 PM 37.0 °F - 19.0 °F 48% 30.11 in 10.0 mi Calm Calm - N/A   Partly Cloudy
3:51 PM 36.0 °F - 19.0 °F 50% 30.10 in 10.0 mi Calm Calm - N/A   Mostly Cloudy
4:51 PM 32.0 °F 28.7 °F 24.1 °F 73% 30.10 in 10.0 mi South 3.5 mph - N/A   Overcast
5:51 PM 35.1 °F 31.0 °F 21.9 °F 59% 30.10 in 10.0 mi South 4.6 mph - N/A   Overcast
6:51 PM 35.1 °F 32.2 °F 23.0 °F 61% 30.10 in 10.0 mi South 3.5 mph - N/A   Overcast
7:51 PM 35.1 °F 28.6 °F 21.9 °F 59% 30.08 in 10.0 mi South 8.1 mph - N/A   Overcast
8:51 PM 35.1 °F 30.1 °F 23.0 °F 61% 30.09 in 10.0 mi SSW 5.8 mph - N/A   Overcast
9:51 PM 34.0 °F 29.8 °F 23.0 °F 64% 30.06 in 8.0 mi SSE 4.6 mph - 0.00 in Snow Light Snow
10:51 PM 34.0 °F 28.8 °F 24.1 °F 67% 30.03 in 10.0 mi South 5.8 mph - 0.00 in   Overcast
11:51 PM 32.0 °F 24.8 °F 28.9 °F 88% 30.00 in 3.0 mi South 8.1 mph - 0.00 in Snow Light Snow
11:58 PM 32.0 °F 24.8 °F 30.2 °F 93% 29.95 in 2.5 mi South 8.1 mph - 0.00 in Snow Light Snow